User: anonymous   Login
Location: Unspecified
(0.0000°N, 0.0000°E)
Time: 21:52:09
(UTC+00:00)
Language:

Aussat K1 - Orbit

View from above orbital plane
View from above orbital plane
View from above satellite
View from above satellite

Ground track
Ground track

The orbit data is extracted from the following two-line orbital elements,

1 15993U 85076B   16119.16309832  .00000000  00000-0  10000-3 0  9997
2 15993  15.2294  11.7192 0003881 261.3126  98.6169  0.99752988 82640
Epoch (UTC): 28 April 2016 03:54:51
Eccentricity: 0.0003881
inclination: 15.2294°
perigee height: 35916 km
apogee height: 35949 km
right ascension of ascending node: 11.7192°
argument of perigee: 261.3126°
revolutions per day: 0.99752988
mean anomaly at epoch: 98.6169°
orbit number at epoch: 8264

The dashed part of the orbit path shows where the satellite is in the earth's shadow,  

DLR